SCP
0 0 0 1 0 0 0 0 0 0 0 0 0 0 0 0 0 0 0 0 0 0 0 0 0 0 0 1 0 0 0 0 0 0 0 0 0 0
0 0 0 0 0 0 0 0 0 0 0 0 0 0 0 0 0 0 0 0 0 0 0 0 0 0 0 0 0 0 0 0 0 0 0 0 0 0
0 0 0 0 0 0 0 0 0 0 0 0 0 0 0 0 0 0 0 0 0 0 0 0 0 0 0 0 0 0 0 0 0 0 0 0 0 0
0 0 0 0 1 1 0 0 0 0 0 0 0 0 0 0 0 0 0 0 0 0 0 0 0 0 0 0 0 0 0 0 0 0 0 0 0 0
0 0 0 1 1 1 1 1 1 1 1 0 0 0 0 0 0 0 0 0 0 0 0 0 0 0 0 0 0 0 0 0 0 0 0 0 0 0
0 0 0 1 1 1 1 1 1 1 1 1 1 0 0 0 0 0 0 0 0 0 0 0 0 0 0 0 0 0 0 0 0 0 0 0 0 0
0 0 0 1 1 1 1 1 1 1 1 1 1 1 0 0 0 0 0 0 0 0 0 0 0 0 0 0 0 0 0 0 0 0 0 0 0 0
0 0 1 1 1 1 1 1 1 1 1 1 1 1 0 0 0 0 0 0 0 0 0 0 0 0 0 0 0 0 0 0 0 0 0 0 0 0
1 1 1 1 2 2 1 1 1 1 1 1 1 1 1 1 1 1 1 1 0 0 0 0 0 0 0 0 0 0 0 0 0 0 0 0 0 0
1 1 1 2 3 2 1 1 1 1 1 1 1 0 1 1 1 1 1 1 1 1 1 1 1 0 0 0 0 0 0 0 0 0 0 0 0 0
1 1 2 3 2 2 1 1 1 1 1 1 0 0 0 1 1 1 1 1 2 2 2 2 1 1 1 0 0 0 0 0 0 0 0 0 0 0
1 1 1 2 2 1 1 1 1 1 1 1 1 1 1 1 1 1 1 2 2 2 2 2 2 2 1 1 1 0 0 0 0 0 0 0 0 0
1 1 1 1 1 1 1 1 2 2 2 1 1 1 1 1 1 1 1 2 2 2 2 2 2 2 2 2 1 1 0 0 0 0 0 0 0 0
2 2 2 1 1 0 0 1 1 1 2 2 2 2 2 2 2 2 2 2 2 2 2 2 2 3 3 2 1 1 0 0 0 0 0 0 0 0
3 3 2 1 1 0 0 0 1 1 2 2 2 2 2 2 2 2 2 2 2 2 2 2 2 3 3 2 2 1 1 0 0 0 0 0 0 0
4 4 3 2 2 1 1 1 1 1 2 2 3 3 3 3 3 3 2 2 2 2 2 2 2 2 2 2 2 2 1 1 1 0 0 0 0 0
3 4 4 4 3 3 3 2 2 2 2 2 3 4 5 5 4 4 3 3 3 2 2 2 2 2 2 2 2 2 2 2 1 0 0 0 0 0
2 2 3 4 4 4 4 4 3 3 3 3 4 5 6 6 6 5 4 4 4 3 2 2 2 2 2 1 1 1 2 2 2 1 0 0 0 0
0 1 2 3 4 5 6 5 5 4 4 4 5 7 8 8 8 6 5 4 4 3 2 2 2 2 2 1 1 1 1 2 1 1 1 0 0 0
0 0 1 2 3 5 6 6 6 6 5 6 6 7 9 10 9 7 5 4 3 2 1 1 2 2 1 1 1 0 0 1 1 1 1 1 0 0
1 1 1 2 2 4 6 7 7 7 7 7 7 8 9 10 9 7 5 3 2 1 1 1 1 1 1 1 0 0 0 0 0 1 1 1 1 0
1 1 2 2 2 3 5 6 7 7 7 8 8 8 8 8 7 6 5 3 1 1 0 0 0 0 0 0 0 0 0 0 0 0 0 0 0 0
1 1 1 2 2 3 4 6 7 7 7 8 8 8 7 6 6 5 3 2 1 0 0 0 0 0 0 0 0 0 0 0 0 0 0 0 0 0
Wind_Speed
0 1 1 0 1 1 3 4 4 2 1 1 0 0 1 1 3 2 3 5 6 5 4 5 5 5 6 5 5 5 5 5 6 6 6 6 6 6
1 2 1 0 0 1 2 2 2 4 2 1 0 0 1 2 3 2 3 6 5 5 4 4 4 5 5 5 5 5 5 5 6 6 6 6 6 5
2 2 1 1 1 1 1 2 2 3 3 0 1 1 2 2 2 2 2 2 2 4 4 4 4 4 4 4 4 4 4 4 4 5 5 5 5 5
1 2 1 1 1 1 1 2 2 2 4 4 1 1 2 1 2 2 2 2 1 3 3 3 3 3 3 3 3 3 3 3 3 4 4 5 4 4
1 1 0 1 1 1 1 2 2 2 3 4 2 1 1 1 2 2 2 1 1 2 2 2 3 2 2 2 3 3 2 2 2 3 3 3 4 4
1 1 1 2 2 1 2 1 2 3 3 4 3 1 1 0 2 1 1 1 0 0 1 1 2 2 2 2 2 2 2 1 1 1 1 2 2 3
2 2 2 3 3 2 2 2 3 3 3 3 2 1 1 1 1 1 1 0 1 0 1 0 0 0 1 2 2 2 2 2 1 1 1 1 1 1
1 1 2 2 3 3 4 4 4 5 4 3 2 2 2 2 2 2 2 1 1 1 1 1 0 1 2 2 3 3 3 3 2 2 2 1 1 0
2 1 1 2 2 2 3 4 3 3 4 4 4 4 4 4 3 3 2 2 2 2 2 1 1 2 2 2 4 4 5 4 3 3 2 2 2 2
2 2 2 1 1 2 3 3 2 1 1 2 3 3 3 4 4 4 4 2 0 0 2 1 1 1 2 1 3 4 4 4 4 3 3 2 2 2
1 1 2 1 1 4 4 3 2 1 1 2 2 2 3 3 4 4 3 2 0 1 1 1 1 1 1 1 2 4 4 4 5 5 4 4 3 2
1 0 1 2 2 4 3 3 2 1 1 1 2 2 1 1 2 4 4 3 2 1 1 2 1 1 1 2 1 1 2 4 5 5 5 5 4 2
1 1 1 2 3 3 3 3 3 2 1 1 1 1 1 1 0 1 2 3 3 2 2 2 2 1 1 1 2 2 1 1 1 2 4 5 5 4
3 2 1 2 2 2 2 2 3 2 2 2 1 0 0 0 0 0 1 1 2 3 3 3 2 2 2 1 2 2 1 1 1 1 2 3 3 4
2 3 3 2 1 1 1 2 2 2 2 1 1 2 2 1 1 1 1 1 1 1 0 1 2 2 2 2 2 1 1 2 1 1 1 2 2 2
2 2 2 1 1 1 0 1 1 2 2 2 2 1 0 0 1 1 1 0 1 2 2 0 2 3 2 2 2 2 2 2 2 2 2 2 2 3
3 1 1 0 0 0 0 0 1 1 1 1 1 1 1 1 0 0 1 1 1 1 2 2 1 0 2 2 1 2 2 2 2 2 2 2 3 3
4 2 2 2 3 2 2 1 1 2 2 2 2 2 2 2 1 1 1 1 1 2 2 1 1 2 2 2 3 3 2 2 2 2 2 2 3 3
3 3 3 3 3 3 3 3 3 3 2 2 2 2 2 2 2 2 1 1 1 1 2 1 1 1 1 3 4 3 3 2 2 2 2 3 4 4
3 3 3 3 3 3 3 3 3 2 2 2 2 2 2 2 2 2 2 2 2 2 2 2 2 3 4 4 3 4 4 4 2 2 2 2 2 2
4 3 3 3 3 3 3 3 3 3 2 2 2 2 2 2 2 2 2 3 2 2 3 3 4 4 2 1 1 3 3 3 4 3 3 1 1 2
4 4 3 3 4 3 3 3 3 3 3 2 2 2 2 2 2 3 2 2 2 3 3 3 2 0 1 2 3 4 3 3 3 3 4 5 3 3
5 4 4 4 4 3 3 3 4 3 3 3 3 3 2 2 2 2 2 2 2 2 2 2 1 1 1 2 3 3 3 2 2 2 3 4 6 7
Wind_Direction
89 100 116 193 150 158 153 155 150 156 229 267 312 89 154 138 135 131 130 126 127 124 115 111 104 95 89 87 84 82 75 69 67 61 56 54 54 53
62 68 58 9 94 98 137 145 144 149 166 226 177 123 131 130 128 136 136 132 127 125 125 120 112 106 100 98 95 88 79 74 73 66 59 54 51 50
43 67 45 43 78 80 89 96 111 128 141 126 72 88 82 90 93 108 122 114 114 120 119 118 123 123 117 111 103 96 87 82 78 74 65 55 49 47
53 60 29 63 71 93 106 107 121 132 141 143 114 90 102 119 104 103 112 113 116 109 127 133 135 133 131 121 114 113 109 100 88 80 71 62 55 48
108 102 77 96 78 87 110 119 126 125 129 137 136 110 105 121 95 90 96 75 113 120 139 159 160 148 142 140 140 139 134 120 101 84 71 65 58 50
93 104 112 121 136 125 107 118 123 117 121 127 131 125 111 114 113 113 76 15 56 114 86 138 161 171 186 175 159 150 154 167 153 116 84 78 68 54
68 69 88 100 107 120 122 133 131 130 131 132 142 132 147 153 174 173 159 268 324 342 57 13 54 334 268 230 203 194 190 196 205 197 183 159 105 47
105 61 62 67 84 90 107 123 136 145 150 148 158 168 195 190 168 161 152 142 263 269 142 274 178 256 264 243 225 217 214 210 214 211 201 199 221 284
134 123 81 65 81 92 86 89 99 131 152 158 164 190 190 191 171 173 182 183 209 209 143 243 254 252 262 246 227 222 218 218 220 222 223 224 230 234
139 146 132 88 94 118 105 82 69 65 179 166 178 199 196 187 178 177 178 165 174 220 140 188 251 253 271 268 239 220 222 222 225 227 229 233 239 235
122 126 135 133 119 123 115 108 72 3 46 111 157 172 170 167 156 135 133 128 174 274 199 158 223 255 279 276 261 236 233 230 225 228 229 230 229 230
127 149 155 151 142 140 139 137 140 259 48 40 34 27 58 112 138 160 167 157 163 239 235 157 194 139 306 289 280 275 261 250 238 235 234 228 216 200
180 199 232 165 158 164 159 173 198 184 141 125 93 44 34 38 47 164 171 165 165 217 217 158 170 163 174 259 287 258 239 258 259 255 246 236 220 196
195 201 212 178 161 172 180 189 169 140 122 111 109 141 200 245 260 157 150 167 185 205 207 165 169 176 165 188 262 280 268 250 229 240 244 240 232 225
197 188 184 186 176 187 204 180 148 133 141 150 177 214 221 211 149 82 43 49 6 306 214 169 162 168 164 184 214 230 260 271 234 230 240 228 227 218
185 180 176 172 175 196 210 162 153 166 172 188 206 222 205 119 123 144 155 159 29 325 330 342 172 161 172 195 184 217 222 241 249 231 226 241 239 219
152 124 119 126 87 305 282 160 137 143 173 195 175 166 150 146 198 161 139 133 155 258 307 329 340 157 178 172 182 227 234 250 241 218 204 247 255 236
145 165 194 202 202 203 194 198 194 190 196 184 177 183 187 188 202 201 158 165 192 225 245 259 11 21 9 324 219 207 232 242 246 223 194 216 260 255
161 187 199 206 207 197 192 194 207 212 199 188 192 201 200 197 198 206 200 185 206 231 244 236 175 146 200 281 286 225 204 233 234 239 222 212 237 252
195 196 203 204 202 197 196 202 210 208 200 201 200 201 199 197 202 207 204 200 205 218 246 250 216 199 204 227 249 268 231 206 213 235 247 245 260 280
205 204 204 201 202 199 196 196 199 203 202 197 199 203 200 195 208 213 211 211 202 208 226 243 244 230 202 120 310 295 287 252 215 209 207 213 284 304
201 202 201 194 192 188 187 189 193 200 204 202 208 210 205 195 200 207 205 200 212 222 235 252 268 240 157 199 243 260 273 299 303 273 214 191 188 217
200 198 194 192 194 188 184 187 190 198 202 201 207 213 205 204 209 201 202 202 207 228 242 260 274 252 232 223 231 247 258 269 293 322 306 284 248 242